• In Belarus
  • List of Countries
  • For 7 days
  • Water Temperature
  • Weather Map
  • Weather Widgets
  • user-avatar
    Login

    Hourly Weather Samkir

    Today, 7 April, Tuesday

    Time Temperature Precipitation Wind Pressure Humidity
    00:00 +7°C° 1.3 mm 5 mps 725 mmHg 91%
    01:00 +7°C° 0.8 mm 5 mps 725 mmHg 90%
    02:00 +6°C° 0.8 mm 5 mps 725 mmHg 90%
    03:00 +5°C° 0 mm 6 mps 726 mmHg 90%
    04:00 +4°C° 0.6 mm 6 mps 726 mmHg 89%
    05:00 +3°C° 0.6 mm 6 mps 726 mmHg 88%
    06:00 +3°C° 0.6 mm 6 mps 727 mmHg 87%
    07:00 +3°C° 0.1 mm 6 mps 727 mmHg 86%
    08:00 +3°C° 0.1 mm 6 mps 727 mmHg 84%
    09:00 +2°C° 0 mm 6 mps 728 mmHg 84%
    10:00 +2°C° 0.3 mm 5 mps 728 mmHg 84%
    11:00 +2°C° 0.3 mm 5 mps 728 mmHg 85%
    12:00 +2°C° 0.3 mm 5 mps 728 mmHg 85%
    13:00 +2°C° 0.1 mm 5 mps 728 mmHg 85%
    14:00 +2°C° 0.1 mm 5 mps 727 mmHg 84%
    15:00 +2°C° 0 mm 5 mps 728 mmHg 83%
    16:00 +3°C° 0.2 mm 4 mps 728 mmHg 85%
    17:00 +1°C° 0.2 mm 4 mps 728 mmHg 86%
    18:00 +1°C° 0.2 mm 4 mps 728 mmHg 88%
    19:00 +2°C° 0.2 mm 3 mps 729 mmHg 90%
    20:00 +1°C° 0.2 mm 3 mps 730 mmHg 92%
    21:00 +1°C° 0.2 mm 3 mps 730 mmHg 95%
    22:00 +1°C° 0.3 mm 3 mps 731 mmHg 95%
    23:00 +2°C° 0.3 mm 2 mps 731 mmHg 96%

    Tomorrow, 8 April, Wednesday

    Time Temperature Precipitation Wind Pressure Humidity
    00:00 +2°C° 0.3 mm 2 mps 731 mmHg 96%
    01:00 +1°C° 0.3 mm 2 mps 731 mmHg 96%
    02:00 0°C° 0.3 mm 3 mps 731 mmHg 95%
    03:00 0°C° 0.3 mm 3 mps 731 mmHg 95%
    04:00 0°C° 0.2 mm 3 mps 732 mmHg 95%
    05:00 0°C° 0.2 mm 3 mps 732 mmHg 95%
    06:00 0°C° 0.2 mm 3 mps 733 mmHg 96%
    07:00 0°C° 0.1 mm 3 mps 732 mmHg 95%
    08:00 0°C° 0.1 mm 3 mps 732 mmHg 94%
    09:00 0°C° 0.1 mm 3 mps 732 mmHg 93%
    10:00 +1°C° 0.1 mm 3 mps 732 mmHg 88%
    11:00 +2°C° 0.1 mm 3 mps 731 mmHg 84%
    12:00 +3°C° 0.1 mm 3 mps 731 mmHg 79%
    13:00 +3°C° 0.1 mm 3 mps 730 mmHg 77%
    14:00 +4°C° 0.1 mm 3 mps 730 mmHg 75%
    15:00 +4°C° 0.1 mm 3 mps 729 mmHg 73%
    16:00 +4°C° 0.1 mm 3 mps 729 mmHg 75%
    17:00 +4°C° 0.1 mm 3 mps 729 mmHg 76%
    18:00 +3°C° 0.1 mm 3 mps 729 mmHg 77%
    19:00 +4°C° 0.1 mm 2 mps 729 mmHg 79%
    20:00 +3°C° 0.1 mm 2 mps 729 mmHg 80%
    21:00 +4°C° 0.1 mm 1 mps 729 mmHg 82%
    22:00 +4°C° 0 mm 1 mps 729 mmHg 83%
    23:00 +4°C° 0 mm 1 mps 729 mmHg 83%

    Day after tomorrow, 9 April, Thursday

    Time Temperature Precipitation Wind Pressure Humidity
    00:00 +3°C° 0 mm 1 mps 728 mmHg 84%
    01:00 +3°C° 0 mm 1 mps 727 mmHg 84%
    02:00 +2°C° 0 mm 0 mps 727 mmHg 84%
    03:00 +2°C° 0 mm 0 mps 726 mmHg 85%
    04:00 +2°C° 0 mm 0 mps 725 mmHg 85%
    05:00 +2°C° 0 mm 0 mps 725 mmHg 85%
    06:00 +2°C° 0 mm 0 mps 725 mmHg 85%
    07:00 +3°C° 0 mm 0 mps 724 mmHg 82%
    08:00 +4°C° 0 mm 1 mps 723 mmHg 79%
    09:00 +5°C° 0 mm 1 mps 723 mmHg 77%
    10:00 +6°C° 0 mm 1 mps 722 mmHg 74%
    11:00 +7°C° 0 mm 1 mps 721 mmHg 71%
    12:00 +8°C° 0 mm 1 mps 721 mmHg 68%
    13:00 +8°C° 0 mm 1 mps 720 mmHg 66%
    14:00 +9°C° 0 mm 1 mps 720 mmHg 64%
    15:00 +10°C° 0 mm 1 mps 719 mmHg 62%
    16:00 +10°C° 0 mm 1 mps 719 mmHg 63%
    17:00 +9°C° 0 mm 1 mps 720 mmHg 64%
    18:00 +8°C° 0 mm 2 mps 720 mmHg 65%
    19:00 +9°C° 0 mm 1 mps 720 mmHg 66%
    20:00 +8°C° 0 mm 1 mps 720 mmHg 67%
    21:00 +6°C° 0 mm 0 mps 720 mmHg 68%
    22:00 +6°C° 0 mm 0 mps 720 mmHg 70%
    23:00 +6°C° 0 mm 0 mps 720 mmHg 71%

    10 April, Friday

    Time Temperature Precipitation Wind Pressure Humidity
    00:00 +6°C° 0 mm 0 mps 720 mmHg 72%
    01:00 +5°C° 0 mm 0 mps 720 mmHg 73%
    02:00 +5°C° 0 mm 0 mps 719 mmHg 74%
    03:00 +5°C° 0 mm 0 mps 719 mmHg 75%
    04:00 +5°C° 0 mm 0 mps 719 mmHg 76%
    05:00 +5°C° 0 mm 0 mps 719 mmHg 78%
    06:00 +6°C° 0 mm 1 mps 719 mmHg 80%
    07:00 +7°C° 0 mm 1 mps 719 mmHg 75%
    08:00 +8°C° 0 mm 1 mps 718 mmHg 70%
    09:00 +10°C° 0 mm 1 mps 718 mmHg 65%
    10:00 +11°C° 0 mm 1 mps 718 mmHg 62%
    11:00 +12°C° 0 mm 2 mps 717 mmHg 60%
    12:00 +12°C° 0 mm 2 mps 717 mmHg 58%
    13:00 +13°C° 0 mm 2 mps 717 mmHg 57%
    14:00 +13°C° 0 mm 2 mps 716 mmHg 55%
    15:00 +14°C° 0 mm 2 mps 716 mmHg 54%
    16:00 +13°C° 0 mm 2 mps 716 mmHg 56%
    17:00 +13°C° 0 mm 2 mps 716 mmHg 59%
    18:00 +13°C° 0 mm 2 mps 717 mmHg 61%
    19:00 +12°C° 0 mm 1 mps 717 mmHg 63%
    20:00 +11°C° 0 mm 1 mps 717 mmHg 65%
    21:00 +10°C° 0 mm 1 mps 718 mmHg 67%
    22:00 +10°C° 0 mm 1 mps 718 mmHg 68%
    23:00 +10°C° 0 mm 1 mps 718 mmHg 70%

    11 April, Saturday

    Time Temperature Precipitation Wind Pressure Humidity
    00:00 +9°C° 0 mm 1 mps 718 mmHg 72%
    01:00 +9°C° 0.1 mm 1 mps 718 mmHg 76%
    02:00 +9°C° 0.1 mm 1 mps 717 mmHg 80%
    03:00 +8°C° 0.1 mm 1 mps 717 mmHg 83%
    04:00 +8°C° 0.1 mm 1 mps 717 mmHg 83%
    05:00 +8°C° 0.1 mm 1 mps 717 mmHg 84%
    06:00 +9°C° 0.1 mm 1 mps 718 mmHg 84%
    07:00 +9°C° 0.2 mm 1 mps 717 mmHg 84%
    08:00 +8°C° 0.2 mm 2 mps 717 mmHg 84%
    09:00 +8°C° 0.2 mm 2 mps 717 mmHg 84%
    10:00 +9°C° 0.2 mm 3 mps 717 mmHg 83%
    11:00 +9°C° 0.2 mm 3 mps 717 mmHg 82%
    12:00 +9°C° 0.2 mm 3 mps 717 mmHg 81%
    13:00 +10°C° 0 mm 4 mps 717 mmHg 78%
    14:00 +10°C° 0 mm 4 mps 717 mmHg 74%
    15:00 +11°C° 0 mm 4 mps 717 mmHg 70%
    16:00 +11°C° 0 mm 4 mps 717 mmHg 71%
    17:00 +11°C° 0 mm 3 mps 717 mmHg 72%
    18:00 +10°C° 0 mm 3 mps 717 mmHg 73%
    19:00 +10°C° 0 mm 3 mps 718 mmHg 72%
    20:00 +9°C° 0 mm 3 mps 719 mmHg 72%
    21:00 +8°C° 0 mm 4 mps 719 mmHg 71%
    22:00 +7°C° 0 mm 4 mps 719 mmHg 72%
    23:00 +7°C° 0 mm 4 mps 719 mmHg 72%

    12 April, Sunday

    Time Temperature Precipitation Wind Pressure Humidity
    00:00 +7°C° 0 mm 4 mps 720 mmHg 72%
    01:00 +6°C° 0 mm 4 mps 720 mmHg 72%
    02:00 +6°C° 0 mm 4 mps 720 mmHg 72%
    03:00 +6°C° 0 mm 4 mps 720 mmHg 72%
    04:00 +6°C° 0 mm 4 mps 720 mmHg 72%
    05:00 +6°C° 0 mm 4 mps 721 mmHg 72%
    06:00 +7°C° 0 mm 3 mps 721 mmHg 72%
    07:00 +7°C° 0 mm 4 mps 721 mmHg 68%
    08:00 +8°C° 0 mm 4 mps 722 mmHg 63%
    09:00 +10°C° 0 mm 5 mps 722 mmHg 59%
    10:00 +12°C° 0 mm 5 mps 722 mmHg 56%
    11:00 +13°C° 0 mm 5 mps 722 mmHg 54%
    12:00 +13°C° 0 mm 4 mps 722 mmHg 52%
    13:00 +14°C° 0 mm 4 mps 722 mmHg 51%
    14:00 +14°C° 0 mm 3 mps 721 mmHg 50%
    15:00 +14°C° 0 mm 3 mps 721 mmHg 49%
    16:00 +15°C° 0 mm 2 mps 722 mmHg 52%
    17:00 +14°C° 0 mm 2 mps 722 mmHg 56%
    18:00 +14°C° 0 mm 1 mps 722 mmHg 59%
    19:00 +13°C° 0 mm 1 mps 723 mmHg 63%
    20:00 +12°C° 0 mm 2 mps 723 mmHg 67%
    21:00 +9°C° 0 mm 2 mps 724 mmHg 71%
    22:00 +9°C° 0 mm 2 mps 724 mmHg 72%
    23:00 +9°C° 0 mm 2 mps 724 mmHg 73%
    Show more